Погода в Игуменке

Россия / Тверская область     56°46′41″N   36°19′12″E
темп.,
°C
ветер,
м/с
пор.,
м/с
влажн.,
%
обл.,
%
осадки,
мм/ч
давл.,
гПа
погр.,
м
13 апреля, вт
вт1300:00+8вюв378597 0.0 1026196
03:00+7вюв3895100 0.0 1025180
06:00+7юв2495100 0.0 102477
09:00+12ююв4972100 0.0 1023386
12:00+18ю5852100 0.0 1022833
15:00+20ю5846100 0.0 10221586
18:00+18ююв485195 0.0 1021294
21:00+12ююв4126595 0.0 1021218
14 апреля, ср
ср1400:00+11ююв311725 0.0 1020199
03:00+9ююв39755 0.0 1020169
06:00+9ююв397373 0.0 1019185
09:00+14ю4116199 0.0 1019443
12:00+18ююз595081 0.0 10181270
15:00+19ю4742100 0.0 10172466
18:00+16ююв3851100 0.0 1017209
21:00+12ююв2362100 0.0 101835
15 апреля, чт
чт1500:00+10ю116590 0.0 101810
03:00+9всв226899 0.0 101810
06:00+8св2273100 0.0 101826
09:00+11всв3564100 0.0 1018278
12:00+15св4553100 0.0 1018668
15:00+16св5553100 0.0 10181068
18:00+12ссв6973100 0.0 1019492
21:00
16 апреля, пт
пт1600:00+7св5118799 0.0 1021419
03:00+5св51291100 0.0 1021411
06:00+5св5129281 0.0 1022437
09:00+7св6108081 0.0 1023527
12:00+11св686354 0.0 1023950
15:00+13св685474 0.0 10231274
18:00+12св695769 0.0 10231201
21:00+7св512548 0.0 1026501
17 апреля, сб
сб1700:00+6св513605 0.0 1026477
03:00+4св412705 0.0 1027361
06:00+3св4127459 0.0 1028341
09:00+7всв6105699 0.0 1029667
12:00+11всв684137 0.0 10291346
15:00+12св67355 0.0 10291607
18:00+11св57454 0.0 10301513
21:00+7св512600 0.0 1031408